When you browse on this site, cookies collect data to enhance your experience and personalize the content and advertising you see.
Visit our Privacy Policy to learn more. By continuing to use the site, you agree to this use of cookies and data.
  • In Österreich
  • Länderverzeichnis
  • Für 7 Tage
  • Wassertemperatur
  • Wetterkarte
  • News
  • Widgets
  • user-avatar
    Anmelden

    Stündliche Wetter Kozhan-Gorodok

    Heute, 18 September, Mittwoch

    Zeit Temperatur Niederschläge Wind Luftdruck Luftfeuchtigkeit
    00:00 +8°C° 0.9 mm 4 m/S 740 mmHg 84%
    01:00 +7°C° 0.9 mm 4 m/S 739 mmHg 88%
    02:00 +7°C° 0 mm 4 m/S 739 mmHg 92%
    03:00 +6°C° 1.3 mm 5 m/S 739 mmHg 91%
    04:00 +5°C° 1.3 mm 6 m/S 739 mmHg 90%
    05:00 +5°C° 1.3 mm 6 m/S 739 mmHg 88%
    06:00 +5°C° 0.1 mm 6 m/S 739 mmHg 88%
    07:00 +5°C° 0.1 mm 7 m/S 740 mmHg 87%
    08:00 +5°C° 0.1 mm 7 m/S 740 mmHg 86%
    09:00 +5°C° 0.1 mm 7 m/S 740 mmHg 83%
    10:00 +7°C° 0.1 mm 6 m/S 741 mmHg 81%
    11:00 +8°C° 0.1 mm 6 m/S 741 mmHg 78%
    12:00 +8°C° 0.1 mm 6 m/S 742 mmHg 77%
    13:00 +8°C° 0.1 mm 7 m/S 742 mmHg 75%
    14:00 +9°C° 0.1 mm 7 m/S 742 mmHg 73%
    15:00 +9°C° 0.1 mm 6 m/S 743 mmHg 71%
    16:00 +10°C° 0.1 mm 6 m/S 744 mmHg 70%
    17:00 +10°C° 0.1 mm 5 m/S 744 mmHg 68%
    18:00 +9°C° 0 mm 5 m/S 745 mmHg 73%
    19:00 +8°C° 0 mm 5 m/S 745 mmHg 78%
    20:00 +7°C° 0 mm 5 m/S 746 mmHg 82%
    21:00 +7°C° 0 mm 5 m/S 746 mmHg 83%
    22:00 +7°C° 0 mm 5 m/S 747 mmHg 83%
    23:00 +7°C° 0 mm 5 m/S 747 mmHg 83%

    Morgen, 19 September, Donnerstag

    Zeit Temperatur Niederschläge Wind Luftdruck Luftfeuchtigkeit
    00:00 +7°C° 0 mm 5 m/S 747 mmHg 85%
    01:00 +7°C° 0 mm 5 m/S 748 mmHg 86%
    02:00 +7°C° 0 mm 5 m/S 748 mmHg 88%
    03:00 +7°C° 0 mm 5 m/S 748 mmHg 88%
    04:00 +7°C° 0 mm 5 m/S 749 mmHg 88%
    05:00 +7°C° 0 mm 5 m/S 749 mmHg 88%
    06:00 +7°C° 0 mm 5 m/S 749 mmHg 86%
    07:00 +7°C° 0 mm 5 m/S 749 mmHg 84%
    08:00 +7°C° 0 mm 5 m/S 750 mmHg 83%
    09:00 +8°C° 0 mm 5 m/S 750 mmHg 81%
    10:00 +8°C° 0 mm 5 m/S 751 mmHg 79%
    11:00 +8°C° 0 mm 4 m/S 751 mmHg 77%
    12:00 +10°C° 0 mm 4 m/S 751 mmHg 73%
    13:00 +11°C° 0 mm 4 m/S 751 mmHg 69%
    14:00 +12°C° 0 mm 4 m/S 751 mmHg 65%
    15:00 +12°C° 0 mm 4 m/S 751 mmHg 65%
    16:00 +12°C° 0 mm 3 m/S 751 mmHg 65%
    17:00 +13°C° 0 mm 2 m/S 751 mmHg 65%
    18:00 +12°C° 0.1 mm 2 m/S 751 mmHg 72%
    19:00 +9°C° 0.1 mm 2 m/S 751 mmHg 79%
    20:00 +8°C° 0.1 mm 2 m/S 751 mmHg 86%
    21:00 +8°C° 0 mm 3 m/S 751 mmHg 88%
    22:00 +7°C° 0 mm 3 m/S 751 mmHg 90%
    23:00 +7°C° 0 mm 3 m/S 752 mmHg 91%

    übermorgen, 20 September, Freitag

    Zeit Temperatur Niederschläge Wind Luftdruck Luftfeuchtigkeit
    00:00 +7°C° 0 mm 3 m/S 751 mmHg 92%
    01:00 +5°C° 0 mm 3 m/S 751 mmHg 93%
    02:00 +5°C° 0 mm 4 m/S 751 mmHg 93%
    03:00 +5°C° 0.1 mm 4 m/S 751 mmHg 93%
    04:00 +5°C° 0.1 mm 4 m/S 751 mmHg 92%
    05:00 +5°C° 0.1 mm 4 m/S 752 mmHg 92%
    06:00 +6°C° 0 mm 4 m/S 752 mmHg 90%
    07:00 +6°C° 0 mm 5 m/S 752 mmHg 89%
    08:00 +6°C° 0 mm 5 m/S 752 mmHg 87%
    09:00 +6°C° 0 mm 5 m/S 753 mmHg 80%
    10:00 +7°C° 0 mm 6 m/S 753 mmHg 74%
    11:00 +8°C° 0 mm 6 m/S 753 mmHg 67%
    12:00 +9°C° 0.3 mm 6 m/S 753 mmHg 63%
    13:00 +10°C° 0.3 mm 6 m/S 753 mmHg 58%
    14:00 +10°C° 0.3 mm 6 m/S 753 mmHg 54%
    15:00 +10°C° 0.1 mm 6 m/S 753 mmHg 56%
    16:00 +9°C° 0.1 mm 5 m/S 753 mmHg 59%
    17:00 +10°C° 0.1 mm 4 m/S 753 mmHg 61%
    18:00 +7°C° 0 mm 4 m/S 754 mmHg 66%
    19:00 +7°C° 0 mm 3 m/S 754 mmHg 72%
    20:00 +4°C° 0 mm 3 m/S 755 mmHg 77%
    21:00 +5°C° 0 mm 2 m/S 755 mmHg 79%
    22:00 +4°C° 0 mm 2 m/S 755 mmHg 81%
    23:00 +4°C° 0 mm 2 m/S 755 mmHg 83%

    21 September, Samstag

    Zeit Temperatur Niederschläge Wind Luftdruck Luftfeuchtigkeit
    00:00 +4°C° 0 mm 2 m/S 755 mmHg 83%
    01:00 +3°C° 0 mm 2 m/S 756 mmHg 84%
    02:00 +3°C° 0 mm 2 m/S 756 mmHg 85%
    03:00 +3°C° 0 mm 2 m/S 756 mmHg 85%
    04:00 +3°C° 0 mm 2 m/S 756 mmHg 84%
    05:00 +3°C° 0 mm 2 m/S 756 mmHg 83%
    06:00 +4°C° 0 mm 2 m/S 756 mmHg 79%
    07:00 +5°C° 0 mm 2 m/S 755 mmHg 75%
    08:00 +7°C° 0 mm 2 m/S 755 mmHg 70%
    09:00 +8°C° 0 mm 3 m/S 755 mmHg 69%
    10:00 +9°C° 0 mm 3 m/S 755 mmHg 67%
    11:00 +11°C° 0 mm 4 m/S 755 mmHg 65%
    12:00 +11°C° 0.1 mm 4 m/S 755 mmHg 69%
    13:00 +11°C° 0.1 mm 4 m/S 754 mmHg 73%
    14:00 +10°C° 0.1 mm 4 m/S 754 mmHg 77%
    15:00 +12°C° 0 mm 4 m/S 754 mmHg 76%
    16:00 +13°C° 0 mm 4 m/S 753 mmHg 75%
    17:00 +14°C° 0 mm 4 m/S 753 mmHg 74%
    18:00 +13°C° 0 mm 4 m/S 753 mmHg 75%
    19:00 +13°C° 0 mm 4 m/S 753 mmHg 76%
    20:00 +13°C° 0 mm 4 m/S 753 mmHg 77%
    21:00 +12°C° 0 mm 4 m/S 753 mmHg 80%
    22:00 +12°C° 0 mm 5 m/S 753 mmHg 83%
    23:00 +10°C° 0 mm 5 m/S 752 mmHg 86%

    22 September, Sonntag

    Zeit Temperatur Niederschläge Wind Luftdruck Luftfeuchtigkeit
    00:00 +9°C° 0 mm 5 m/S 752 mmHg 87%
    01:00 +9°C° 0 mm 5 m/S 752 mmHg 87%
    02:00 +9°C° 0 mm 5 m/S 752 mmHg 87%
    03:00 +9°C° 0 mm 5 m/S 752 mmHg 88%
    04:00 +8°C° 0 mm 5 m/S 752 mmHg 89%
    05:00 +8°C° 0 mm 5 m/S 752 mmHg 90%
    06:00 +9°C° 0 mm 5 m/S 752 mmHg 88%
    07:00 +9°C° 0 mm 5 m/S 752 mmHg 86%
    08:00 +11°C° 0 mm 4 m/S 752 mmHg 84%
    09:00 +12°C° 0 mm 4 m/S 752 mmHg 80%
    10:00 +13°C° 0 mm 4 m/S 752 mmHg 76%
    11:00 +15°C° 0 mm 4 m/S 752 mmHg 73%
    12:00 +17°C° 0 mm 3 m/S 752 mmHg 68%
    13:00 +18°C° 0 mm 3 m/S 752 mmHg 63%
    14:00 +19°C° 0 mm 3 m/S 752 mmHg 59%
    15:00 +19°C° 0 mm 2 m/S 751 mmHg 62%
    16:00 +18°C° 0 mm 2 m/S 751 mmHg 65%
    17:00 +19°C° 0 mm 1 m/S 751 mmHg 68%
    18:00 +16°C° 0 mm 1 m/S 751 mmHg 73%
    19:00 +14°C° 0 mm 1 m/S 751 mmHg 78%
    20:00 +13°C° 0 mm 2 m/S 751 mmHg 83%
    21:00 +12°C° 0 mm 2 m/S 751 mmHg 84%
    22:00 +12°C° 0 mm 2 m/S 752 mmHg 84%
    23:00 +10°C° 0 mm 3 m/S 752 mmHg 84%

    23 September, Montag

    Zeit Temperatur Niederschläge Wind Luftdruck Luftfeuchtigkeit
    00:00 +10°C° 0 mm 3 m/S 752 mmHg 81%
    01:00 +10°C° 0 mm 3 m/S 752 mmHg 77%
    02:00 +10°C° 0 mm 3 m/S 752 mmHg 73%
    03:00 +9°C° 0 mm 3 m/S 751 mmHg 74%
    04:00 +9°C° 0 mm 3 m/S 751 mmHg 74%
    05:00 +8°C° 0 mm 3 m/S 750 mmHg 75%
    06:00 +7°C° 0 mm 4 m/S 750 mmHg 72%
    07:00 +8°C° 0 mm 4 m/S 750 mmHg 68%
    08:00 +8°C° 0 mm 4 m/S 750 mmHg 65%
    09:00 +11°C° 0 mm 4 m/S 750 mmHg 63%
    10:00 +12°C° 0 mm 4 m/S 750 mmHg 61%
    11:00 +13°C° 0 mm 4 m/S 750 mmHg 58%
    12:00 +14°C° 0 mm 4 m/S 749 mmHg 57%
    13:00 +14°C° 0 mm 4 m/S 748 mmHg 57%
    14:00 +15°C° 0 mm 4 m/S 748 mmHg 56%
    15:00 +14°C° 0 mm 4 m/S 748 mmHg 58%
    16:00 +14°C° 0 mm 4 m/S 747 mmHg 59%
    17:00 +14°C° 0 mm 3 m/S 747 mmHg 61%
    18:00 +12°C° 0 mm 3 m/S 747 mmHg 63%
    19:00 +11°C° 0 mm 3 m/S 747 mmHg 65%
    20:00 +8°C° 0 mm 4 m/S 747 mmHg 67%
    21:00 +9°C° 0 mm 3 m/S 747 mmHg 67%
    22:00 +8°C° 0 mm 3 m/S 747 mmHg 66%
    23:00 +8°C° 0 mm 3 m/S 747 mmHg 66%
    Mehr zeigen